Regional Weather Roundup
Issued by NWS

Home | Current Version | Previous Version | Text Only | Print | Product List | Glossary Off
Versions: 1 2 3 4 5 6 7 8 9 10 11 12 13 14 15 16 17 18 19 20 21 22 23 24 25 26 27 28 29 30 31 32 33 34 35 36 37 38 39 40 41 42 43 44 45 46 47 48 49 50

000
ASUS43 KMKX 250111
RWRWI

WISCONSIN REGIONAL WEATHER ROUNDUP
NATIONAL WEATHER SERVICE MILWAUKEE/SULLIVAN WI
800 PM CDT TUE MAY 24 2016

NOTE: "FAIR" INDICATES FEW OR NO CLOUDS BELOW 12,000 FEET WITH NO
SIGNIFICANT WEATHER AND/OR OBSTRUCTIONS TO VISIBILITY.

WIZ001-002-006>008-014>016-023>028-250200-
NORTHWEST WISCONSIN

CITY           SKY/WX    TMP DP  RH WIND       PRES   REMARKS
SUPERIOR ARPT  FOG       48  48 100 E12       29.96R VSB 1/2
ASHLAND        FOG       55  55 100 NE9       29.97R VSB 1/4
HAYWARD        PTCLDY    71  57  61 NE6       29.92S
SIREN          CLOUDY    72  59  62 CALM      29.90S
CUMBERLAND     CLOUDY    73  52  46 CALM      29.92R
RICE LAKE      CLOUDY    77  53  43 CALM      29.92S
CHETEK         CLOUDY    73  59  61 CALM      29.91R
LADYSMITH      CLEAR     72  58  60 NW3       29.93S
EAU CLAIRE     CLEAR     76  51  41 NW3       29.89S
MENOMONIE      CLEAR     75  47  37 CALM      29.90R
NEW RICHMOND   PTCLDY    78  50  37 CALM      29.91R
OSCEOLA        PTCLDY    79  55  42 CALM      29.92S HX  80
$$

WIZ003>005-009-010-017-018-250200-
NORTH CENTRAL WISCONSIN

CITY           SKY/WX    TMP DP  RH WIND       PRES   REMARKS
MANITOWISH WTR NOT AVBL
ARBOR VITAE    CLEAR     67  60  78 N3        29.95R
WOODRUFF       CLEAR     67  60  78 N3        29.95R
RHINELANDER    LGT RAIN  70  55  59 N5        29.94R
EAGLE RIVER      N/A     67  58  74 N5        29.94S
LAND O LAKES   MOCLDY    66  57  72 N3        29.95F
PHILLIPS       CLOUDY    71  61  70 N5        29.92S
TOMAHAWK       CLEAR     69  56  61 CALM      29.93S
MEDFORD        PTCLDY    72  63  72 CALM      29.93S
MERRILL        CLEAR     74  59  59 W5        29.92F
$$

WIZ029-030-035-036-043>047-250200-
CENTRAL WISCONSIN

CITY           SKY/WX    TMP DP  RH WIND       PRES   REMARKS
WAUSAU         CLEAR     77  56  48 W3        29.90F
MOSINEE        CLEAR     73  55  53 SW3       29.93F
MARSHFIELD     CLEAR     75  55  49 W5        29.91S
STEVENS POINT  CLEAR     76  53  45 CALM      29.93S
WAUPACA        PTCLDY    79  57  47 W5        29.91S HX  80
WAUTOMA        CLEAR     78  58  49 SW5       29.92R
WISC RAPIDS    CLEAR     76  55  48 W3        29.93R
CAMP DOUGLAS   NOT AVBL
$$

WIZ011>013-019>022-031-037>040-048>050-250200-
NORTHEAST WISCONSIN

CITY           SKY/WX    TMP DP  RH WIND       PRES   REMARKS
ANTIGO         CLEAR     70  58  65 CALM      29.93F
SHAWANO        CLEAR     77  56  47 W5        29.90F
OCONTO         PTCLDY    67  60  76 NE3       29.89S
STURGEON BAY   NOT AVBL
GREEN BAY      PTCLDY    79  57  46 SW3       29.89F HX  80
MANITOWOC      CLEAR     68  57  68 S7        29.91F
APPLETON       PTCLDY    77  52  41 SW6       29.90S
CLINTONVILLE   CLEAR     77  52  41 NW5       29.90S
OSHKOSH        CLEAR     77  58  51 CALM      29.91R
$$

WIZ032>034-041-042-053>061-250200-
SOUTHWEST WISCONSIN

CITY           SKY/WX    TMP DP  RH WIND       PRES   REMARKS
LA CROSSE      CLEAR     80  60  50 CALM      29.89S HX  81
SPARTA         CLEAR     78  57  49 CALM      29.92S
VIROQUA        CLEAR     78  55  43 CALM      29.94S
BOSCOBEL       CLEAR     82  60  47 CALM      29.91R HX  82
PRAIRIE DU CHI CLEAR     80  58  48 E3        29.90R HX  80
PLATTEVILLE    CLEAR     80  60  50 CALM      29.93S HX  81
$$

WIZ056-057-062-063-064-067-068-250200-
SOUTH CENTRAL WISCONSIN

CITY           SKY/WX    TMP DP  RH WIND       PRES   REMARKS
REEDSBURG      PTCLDY    77  59  54 CALM      29.93R
BARABOO/DELLS  PTCLDY    77  55  45 CALM      29.94R
LONE ROCK      CLEAR     78  62  57 NE3       29.93R HX  80
MINERAL POINT  CLEAR     79  55  44 CALM      29.94S
MADISON        CLOUDY    79  60  52 CALM      29.93R HX  80
MIDDLETON      CLOUDY    79  59  49 SW3       29.94R HX  80
WATERTOWN      PTCLDY    78  61  55 W3        29.92S
MONROE         CLOUDY    79  59  50 NW3       29.93S HX  80
JANESVILLE     PTCLDY    79  63  57 SE5       29.92S HX  80
$$

WIZ051-052-058>065-066-070>072-250200-
SOUTHEAST WISCONSIN

CITY           SKY/WX    TMP DP  RH WIND       PRES   REMARKS
MILWAUKEE      MOCLDY    70  60  70 E5        29.94R
WAUKESHA       RAIN      68  63  83 W6        29.96R
MILWAUKEE/TIMM TSTM      73  57  56 W23       29.96R VSB 1
RACINE         PTCLDY    71  50  47 CALM      29.95R
BURLINGTON     CLOUDY    74  56  51 CALM      29.93S
KENOSHA        CLOUDY    78  55  44 W5        29.93R HAZE
FOND DU LAC    CLEAR     76  61  59 SW5       29.92R
SHEBOYGAN      PTCLDY    70  60  70 S3        29.92S
WEST BEND      PTCLDY    77  55  47 CALM      29.94R
JUNEAU         PTCLDY    77  59  53 CALM      29.95R
$$

LSZ147-162-250200-
LAKE SUPERIOR

STATION/POSITION TIME  TEMP    WIND        PRES    WAVE
                       AIR SEA DIR/SP/G            HT/PER
                 (UTC) (F)     (DEG/KT/KT) (MB)    (FT/S)
W MID LAKE BUOY  0050   43 38   50/ 12/ 14 1015.4R   1/ 3
DEVILS ISLAND    0100   47      90/ 14/ 16 1015.6R
SAXON HARBOR     0040   48     360/  4/  6 1014.6R
$$

LMZ867-665-643>646-250200-
LAKE MICHIGAN

STATION/POSITION TIME  TEMP    WIND        PRES    WAVE
                       AIR SEA DIR/SP/G            HT/PER
                 (UTC) (F)     (DEG/KT/KT) (MB)    (FT/S)
CHAMBERS ISLAND  0000   62      60/  8/ 10 1012.9S
N MID LAKE BUOY  0050   48 44  150/  8/  8 1012.9F   1/ 4
NORTHPORT PIER   0000   54     150/  6/ 13 1013.2R
SISTER BAY       0019   67     120/  8/ 13   N/A
ALGOMA LAKESHORE 0016          220/  7/  9   N/A
KEWAUNEE LAKESHO 0000   57                 1012.0R
SHEBOYGAN LAKESH 0100   63     180/ 16/ 17 1013.6R
PORT WASHINGTON  0000   62     160/  4/  5 1014.2F
S MID LAKE BUOY  0050   56 49  130/ 10/ 10 1013.2R   0
KENOSHA   LAKESH 0100   64     170/ 11/ 11 1013.2R
$$

TC  - TEMPERATURE IN CELSIUS
VSB - VISIBILITY IN STATUTE MILES
WCI - WIND CHILL INDEX
HX  - HEAT INDEX





USA.gov is the U.S. government's official web portal to all federal, state and local government web resources and services.